This demonstration page uses our WeatherBlox Daily Observations layout. Learn more.

Left ArrowRight Arrow

44.8408, -93.29828

Hourly Observations for April 6, 2017

Temp ( °F °C ) Dew Point ( °F °C ) Humidity (%) Winds ( mph kmh ) Pressure ( in mb ) Visibility ( mi km ) Precip ( " mm )
12:53 am 00:53 Mostly Cloudy 43 6.1 21 -6.1 42 42 N 5 7 30.04 1017 10 16 0.00 0.00
1:53 am 01:53 Partly Cloudy 41 5 23 -5 49 49 N 9 15 30.06 1018 10 16 0.00 0.00
2:53 am 02:53 Partly Cloudy 40 4.4 23 -5 51 51 N 9 15 30.07 1018 10 16 0.00 0.00
3:53 am 03:53 Partly Cloudy 39 3.9 23 -5 53 53 N 9 15 30.08 1019 10 16 0.00 0.00
4:53 am 04:53 Mostly Clear 37 2.8 23 -5 57 57 N 12 19 30.09 1019 10 16 0.00 0.00
5:53 am 05:53 Mostly Clear 36 2.2 23 -5 59 59 N 9 15 30.12 1020 10 16 0.00 0.00
6:53 am 06:53 Mostly Sunny 36 2.2 23 -5 59 59 N 10 17 30.15 1021 10 16 0.00 0.00
7:53 am 07:53 Mostly Sunny 36 2.2 24 -4.4 62 62 N 10 17 30.19 1022 10 16 0.00 0.00
8:53 am 08:53 Mostly Sunny 40 4.4 24 -4.4 53 53 N 10 17 30.20 1023 10 16 0.00 0.00
9:53 am 09:53 Mostly Sunny 43 6.1 24 -4.4 47 47 NNE 13 20 30.21 1023 10 16 0.00 0.00
10:53 am 10:53 Mostly Sunny 46 7.8 22 -5.6 38 38 NNE 13 20 30.22 1023 10 16 0.00 0.00
11:53 am 11:53 Sunny 48 8.9 19 -7.2 32 32 N 16 26 30.20 1023 10 16 0.00 0.00
12:53 pm 12:53 Sunny 51 10.6 17 -8.3 26 26 N 15 24 30.19 1023 10 16 0.00 0.00
1:53 pm 13:53 Sunny 53 11.7 18 -7.8 25 25 N 17 28 30.18 1022 10 16 0.00 0.00
2:53 pm 14:53 Sunny 55 12.8 15 -9.4 20 20 N 18 30 30.18 1022 10 16 0.00 0.00
3:53 pm 15:53 Sunny 55 12.8 12 -11.1 18 18 N 17 28 30.16 1021 10 16 0.00 0.00
4:53 pm 16:53 Sunny 54 12.2 12 -11.1 19 19 NNE 14 22 30.16 1022 10 16 0.00 0.00
5:53 pm 17:53 Sunny 54 12.2 14 -10 20 20 NNE 16 26 30.17 1022 10 16 0.00 0.00
6:53 pm 18:53 Sunny 53 11.7 15 -9.4 22 22 NNE 10 17 30.18 1022 10 16 0.00 0.00
7:53 pm 19:53 Clear 50 10 19 -7.2 29 29 N 9 15 30.19 1023 10 16 0.00 0.00
8:53 pm 20:53 Clear 48 8.9 19 -7.2 32 32 N 10 17 30.21 1023 10 16 0.00 0.00
9:53 pm 21:53 Clear 46 7.8 19 -7.2 34 34 N 8 13 30.22 1023 10 16 0.00 0.00
10:53 pm 22:53 Clear 45 7.2 19 -7.2 35 35 NE 6 9 30.21 1023 10 16 0.00 0.00
11:53 pm 23:53 Clear 43 6.1 19 -7.2 38 38 Calm 30.21 1023 10 16 0.00 0.00

Powered by AerisWeather